Regional Weather Roundup
Issued by NWS

Home | Current Version | Previous Version | Text Only | Print | Product List | Glossary Off
Versions: 1 2 3 4 5 6 7 8 9 10 11 12 13 14 15 16 17 18 19 20 21 22 23 24 25 26 27 28 29 30 31 32 33 34 35 36 37 38 39 40 41 42 43 44 45 46 47 48 49 50

000
ASUS43 KIND 250059
RWRIN

WEATHER ROUNDUP FOR INDIANA
NATIONAL WEATHER SERVICE INDIANAPOLIS IN
900 PM EDT THU MAY 24 2018

NOTE: "FAIR" INDICATES FEW OR NO CLOUDS BELOW 12,000 FEET WITH NO
SIGNIFICANT WEATHER AND/OR OBSTRUCTIONS TO VISIBILITY.

* - STATION DOES NOT REPORT WEATHER SUCH AS PRECIPITATION OR FOG.

+ - STATION NOT QUALITY CONTROLLED BY THE NATIONAL WEATHER SERVICE.
    USE DATA WITH CAUTION...ESPECIALLY DEWPOINT AND RELATIVE
    HUMIDITY OBSERVATIONS.

INZ001>003-010>013-019-020-250200-
NORTHWEST INDIANA

CITY           SKY/WX    TMP DP  RH WIND       PRES   REMARKS
GARY /AIRPORT/ PTCLDY    77  52  41 CALM      30.05S
MICHIGAN CITY+ FAIR      70  57  64 CALM      30.06S
MONTICELLO +   FAIR     N/A N/A N/A CALM      30.05S

$$

LMZ046-743>745-250200-
SOUTHERN LAKE MICHIGAN

STATION/POSITION TIME  TEMP    WIND        PRES    WAVE
                       AIR SEA DIR/SP/G            HT
                 (UTC) (F)     (DEG/KT/KT) (MB)    (FT)
BURNS HARBOR     0040   68      80/ 11/ 12 1017.6F
MICHIGAN CITY    0030   71      40/ 13/ 13   N/A
5NW MICH CITY    0050   64 60   80/  8/  8   N/A     0

$$

INZ004-005-014>016-021>024-250200-
NORTH CENTRAL INDIANA

CITY           SKY/WX    TMP DP  RH WIND       PRES   REMARKS
ELKHART        FAIR      77  48  36 CALM      30.07F
GOSHEN         FAIR      73  56  54 SE5       30.07F
PERU/GRISSOM   FAIR      77  47  34 CALM      30.06S
SOUTH BEND     FAIR      78  46  32 CALM      30.07F

$$

INZ006>009-017-018-025>027-250200-
NORTHEAST INDIANA

CITY           SKY/WX    TMP DP  RH WIND       PRES   REMARKS
ANGOLA *+      FAIR      70  57  64 CALM      30.08F
FORT WAYNE     FAIR      76  50  40 E3        30.08F
KENDALLVILLE + FAIR     N/A N/A N/A CALM      30.09S

$$

INZ028-029-035-036-043>045-051>053-250200-
WEST CENTRAL INDIANA

CITY           SKY/WX    TMP DP  RH WIND       PRES   REMARKS
CRAWFORDSVL +  FAIR      74  51  43 SE3       30.06F
GREENCASTLE +  FAIR      72  52  49 CALM      30.07S
LAFAYETTE      FAIR      74  58  57 CALM      30.04S
TERRE HAUTE    FAIR      77  54  44 E5        30.05S

$$

INZ030>032-037>040-046>048-054>057-064-065-250200-
CENTRAL INDIANA

CITY           SKY/WX    TMP DP  RH WIND       PRES   REMARKS
ANDERSON       FAIR      74  48  39 CALM      30.08S HAZE
COLUMBUS       CLEAR     77  50  38 SE3       30.07S
INDIANAPOLIS   FAIR      75  49  39 SE7       30.05F
-EAGLE CREEK   FAIR      79  49  34 CALM      30.05F
KOKOMO +       FAIR      77  49  37 SE3       30.07F
MT COMFORT *+  FAIR      75  55  50 SE3       30.07F
SHELBYVILLE    FAIR      78  51  38 SE6       30.06F

$$

INZ033-034-041-042-049-050-058-059-250200-
EAST CENTRAL INDIANA

CITY           SKY/WX    TMP DP  RH WIND       PRES   REMARKS
MUNCIE         FAIR      79  49  34 SE6       30.07F
RICHMOND +     FAIR      72  54  53 SE5       30.10F

$$

INZ060-061-067>069-081>083-085>088-250200-
SOUTHWEST INDIANA

CITY           SKY/WX    TMP DP  RH WIND       PRES   REMARKS
EVANSVILLE     FAIR      78  60  53 CALM      30.04S
HUNTINGBURG +  FAIR      78  57  48 CALM      30.05S

$$

INZ062-063-066-070>080-084-089>092-250200-
SOUTH CENTRAL AND SOUTHEAST INDIANA

CITY           SKY/WX    TMP DP  RH WIND       PRES   REMARKS
BLOOMINGTON    FAIR      71  61  70 CALM      30.06F
FRENCH LICK *+ FAIR      73  45  35 CALM      30.07S
SEYMOUR +      FAIR      77  57  50 CALM      30.06S

$$





USA.gov is the U.S. government's official web portal to all federal, state and local government web resources and services.